Regional Weather Roundup
Issued by NWS Newport/Morehead, NC

Current Version | Previous Version | Graphics & Text | Print | Product List | Glossary Off
Versions: 1 2 3 4 5 6 7 8 9 10 11 12 13 14 15 16 17 18 19 20 21 22 23 24 25 26 27 28 29 30 31 32 33 34 35 36 37 38 39 40 41 42 43 44 45 46 47 48 49 50

000
ASUS42 KMHX 022027
RWRMHX
WEATHER ROUNDUP FOR EASTERN NORTH CAROLINA
NATIONAL WEATHER SERVICE NEWPORT/MOREHEAD CITY NC
300 PM EST MON MAR 02 2015

NOTE: "FAIR" INDICATES FEW OR NO CLOUDS BELOW 12,000 FEET
WITH NO SIGNIFICANT WEATHER AND/OR OBSTRUCTIONS TO VISIBILITY

NCZ015>017-031-032-045>047-102-103-022100-
NORTH COAST

CITY           SKY/WX    TMP DP  RH WIND       PRES   REMARKS
EDENTON        PTSUNNY   48  40  72 SE5       30.26R
ELIZABETH CITY MOSUNNY   48  35  60 N10       30.27R
KITTY HAWK     CLEAR     41  36  82 N8G18     30.25R
MANTEO         SUNNY     43  34  70 N16G23    30.27R

$$

NCZ045>047-081-094-103-104-022100-
CENTRAL COAST

CITY           SKY/WX    TMP DP  RH WIND       PRES   REMARKS
FRISCO         MOSUNNY   44  38  79 N10G20    30.26R
SWANQUARTER      N/A     50 N/A N/A NE9G18    30.21S

$$

NCZ095-097-098-100-101-022100-
SOUTHERN COAST

CITY           SKY/WX    TMP DP  RH WIND       PRES   REMARKS
BEAUFORT       PTSUNNY   61  49  64 NE10      30.21S
CEDAR ISLAND     N/A     45 N/A N/A NE16      30.30R
JACKSONVILLE   MOSUNNY   62  47  57 N14       30.21R
PINEY ISLAND     N/A    N/A N/A N/A MISG      30.24R
WILMINGTON     SUNNY     63  49  60 NW12      30.22R


$$

NCZ011>013-027>030-043-044-078>080-089-090>093-098-022100-
COASTAL PLAIN

CITY           SKY/WX    TMP DP  RH WIND       PRES   REMARKS
AHOSKIE        MOSUNNY   51  39  64 NE7       30.25R
CLINTON        MOSUNNY   64  49  57 N6        30.21F
ELIZABETHTOWN  MOSUNNY   63  49  61 N5        30.22S
GOLDSBORO      MOSUNNY   62  49  64 N12       30.19F
GREENVILLE     MOSUNNY   61  41  48 N5        30.23R
HAVELOCK       MOSUNNY   63  45  51 N12       30.22S
KENANSVILLE    MOSUNNY   62  43  50 N10G17    30.23S
KINSTON        MOSUNNY   63  43  48 N6        30.21F
NEW BERN       MOSUNNY   63  44  50 N7        30.22S
RICHLANDS      PTSUNNY   63  45  51 N7G17     30.22S
ROCKY MOUNT    MOSUNNY   60  39  45 VRB7      30.22S
WASHINGTON     MOSUNNY   59  42  53 N8        30.22S
WHITEVILLE     MOSUNNY   59  49  71 CALM      30.22R

$$

AMZ130-135-150-152-154-156-158-170-250-252-270-ANZ085-086-088-633-658-670-022100-
MARINE OBSERVATIONS

STATION/POSITION TIME  TEMP    WIND        PRES    WAVE   SWELL
                       AIR SEA DIR/SP/G            HT/PER HT/PER
                 (UTC) (F)     (DEG/KT/KT) (MB)    (FT/S) (FT/S)
CHESAPEAKE LIGHT 2000   40     360/ 17/ 17 1025.2
64 E VA BEACH    1950   44 51  350/ 21/ 25 1023.2    4/ 5   2/ 8
DUCK             2000   36 35   10/ 11/ 12 1024.1
2 E DUCK         1911      34                N/A     2/ 7
10 NE DUCK       1922      37                N/A     3/ 7
OREGON INLET     2000   39 42  360/ 12/ 16 1024.7
HATTERAS CG      2000   42 43   10/ 12/ 15 1024.9
CAPE LOOKOUT     2000   54      70/  2/  3 1023.2
BEAUFORT LAB     2000   60 44   40/  8/ 11 1022.0
27 SE WRIGHTSVLE NOT AVBL
5 SE WRIGHTSVLE  NOT AVBL
225 S CAPE HAT   1950   72 74  280/ 12/ 16 1022.2    5/ 9   5/ 9
41 SE CHARLESTON 1950   59 68  260/ 10/ 14 1022.6    4/10   3/10

$$



USA.gov is the U.S. government's official web portal to all federal, state and local government web resources and services.